Location: Luxembourg
(49.6117°N, 6.1300°E)
Time: 20:05:21
(UTC+02:00)

Tiangong 2 - Pass Details

Date: 26 May 2019
Orbit: 376 x 389 km, 42.8° (Epoch: 20 June)

Event Time Altitude Azimuth Distance (km) Brightness Sun altitude
Rises 23:22:40 0° 260° (W) 2,236 5.2 -13.5°
Reaches altitude 10° 23:25:25 10° 233° (SW) 1,381 3.8 -13.8°
Enters shadow 23:26:46 14° 208° (SSW) 1,181 3.2 -13.9°
